Regional Weather Roundup
Issued by NWS New Orleans/Baton Rouge, LA

Home | Current Version | Previous Version | Text Only | Print | Product List | Glossary On
Versions: 1 2 3 4 5 6 7 8 9 10 11 12 13 14 15 16 17 18 19 20 21 22 23 24 25 26 27
000
ASUS44 KLIX 200213
RWRLIX
NEW ORLEANS REGIONAL WEATHER ROUNDUP
NATIONAL WEATHER SERVICE NEW ORLEANS LA
800 PM CST SUN FEB 19 2017

NOTE: "FAIR" INDICATES FEW OR NO CLOUDS BELOW 12,000 FEET WITH NO
      SIGNIFICANT WEATHER AND/OR OBSTRUCTIONS TO VISIBILITY.
      SKY/WX - SKY CONDITION AND SIGNIFICANT WEATHER.
      TMP - AIR TEMPERATURE.     DP    - DEWPOINT TEMPERATURE.
      RH  - RELATIVE HUMIDITY.   PRES  - PRESSURE.
      HI  - HEAT INDEX.          WCI   - WIND CHILL INDEX.

*  THESE STATIONS ARE NOT NWS OR FAA STATIONS AND ARE NOT UNDER
   NWS QUALITY CONTROL.

LAZ038-040-048-061>063-065>067-069-200300-
SOUTHEAST LOUISIANA

CITY           SKY/WX    TMP DP  RH WIND       PRES   REMARKS
N.O. AUDUBON   NOT AVBL
N.O. INTL ARPT PTCLDY    67  64  90 SE8       30.06R
N.O. LAKEFRONT CLEAR     67  63  87 SE8       30.07R
N.O. DOWNTOWN*   N/A     69  65  86 VRB5      30.07R
RESERVE*       MOCLDY    69  66  91 SE8       30.07R
SLIDELL        CLEAR     61  58  90 CALM      30.06R
BATON ROUGE    CLEAR     68  63  84 E8        30.05R
BOOTHVILLE     MOCLDY    66  66 100 SE7       30.08R
BELLE CHASSE   CLOUDY    67  66  97 SE9       30.06R
BOGALUSA*        N/A     62  53  72 CALM      30.07R
GALLIANO*      CLOUDY    68  64  88 E5        30.06R
NEW ROADS*       N/A     67  62  82 E7        30.04R
GONZALES*      MOCLDY    68  63  84 SE3       30.05R
HAMMOND*       CLEAR     63  55  77 SE6       30.06R
HOUMA*         CLOUDY    69  67  93 E8        30.05R
PORT FOURCHON* MOCLDY    68  66  94 E10       30.06R

$$

MSZ070-080>082-200300-
SOUTHERN MISSISSIPPI

CITY           SKY/WX    TMP DP  RH WIND       PRES   REMARKS
MCCOMB         CLEAR     64  52  64 CALM      30.06R
GULFPORT       CLEAR     61  60  97 CALM      30.07R
BILOXI         CLEAR     65  63  93 SE3       30.07R
PASCAGOULA     FOG       57  55  93 CALM      30.08R VSB 1
STENNIS ARPT*  CLEAR     55  52  88 CALM      30.08R

$$

COASTAL OBSERVATIONS
LAKE AND NEARSHORE STATIONS

STATION/POSITION TIME  TEMP    WIND        PRES    WAVE
                       AIR SEA DIR/SP/G            HT/PER
                 (UTC) (F)     (DEG/KT/KT) (MB)    (FT/S)
PASCAGOULA       0142   66     140/  4/  6 1017.7
WAVELAND YACHT   0142   64 63  160/  1/  2 1017.9
GRAND ISLE       0142   68 66  110/  5/  8 1018.0
SOUTHWEST PASS   0136          110/ 11/ 12   N/A
NEW CANAL        0142   68 64  150/  3/  5 1017.0
SHELL BEACH      0142   65 68  140/  6/  8 1018.1

OFFSHORE STATIONS

STATION/POSITION TIME  TEMP    WIND        PRES    WAVE
                       AIR SEA DIR/SP/G            HT/PER
                 (UTC) (F)     (DEG/KT/KT) (MB)    (FT/S)

$$





USA.gov is the U.S. government's official web portal to all federal, state and local government web resources and services.